GW6301 Weather Reports


Display with metric or nautical units.
time (UTC)temp
F
wind
direction
speed
MPH
gust
MPH
rain 1hr
in
rain 24hr
in
rain mn
in
humidity
%
barometer
mb
20260504050752 43 50 0.0 1.0 0.00 0.00 0.00 77 1009.5
20260504050251 43 14 0.0 0.0 0.00 0.00 0.00 77 1009.5
20260504045752 44 26 0.0 1.0 0.00 0.00 0.00 77 1009.5
20260504045252 44 32 0.0 0.0 0.00 0.00 0.00 76 1009.5
20260504044751 44 350 0.0 0.0 0.00 0.00 0.00 75 1009.5
20260504044251 45 343 0.0 0.0 0.00 0.00 0.00 74 1009.5
20260504043751 46 13 0.0 1.0 0.00 0.00 0.00 74 1009.5
20260504043252 46 332 0.0 1.0 0.00 0.00 0.00 74 1009.5
20260504042751 46 28 0.0 1.0 0.00 0.00 0.00 74 1009.5
20260504042251 47 26 0.0 0.0 0.00 0.00 0.00 73 1009.5
20260504041751 47 24 0.0 0.0 0.00 0.00 0.00 74 1009.5
20260504041252 47 336 0.0 1.0 0.00 0.00 0.00 71 1009.5
20260504040751 47 8 0.0 0.0 0.00 0.00 0.00 70 1009.5
20260504040251 48 337 0.0 0.0 0.00 0.00 0.00 72 1009.5
20260504035751 48 64 0.0 0.0 0.00 0.00 0.00 71 1009.5
20260504035251 48 29 0.0 0.0 0.00 0.00 0.00 71 1009.5
20260504034751 48 27 0.0 0.0 0.00 0.00 0.00 72 1009.5
20260504034251 48 15 0.0 0.0 0.00 0.00 0.00 71 1009.5
20260504033751 48 5 0.0 0.0 0.00 0.00 0.00 69 1009.5
20260504033251 49 5 0.0 0.0 0.00 0.00 0.00 69 1009.5
20260504032751 49 8 0.0 0.0 0.00 0.00 0.00 69 1009.5
20260504032251 49 348 0.0 0.0 0.00 0.00 0.00 68 1009.5
20260504031751 49 46 0.0 0.0 0.00 0.00 0.00 67 1009.8
20260504031251 50 1 0.0 0.0 0.00 0.00 0.00 68 1009.8
20260504030751 50 11 0.0 0.0 0.00 0.00 0.00 65 1009.8
20260504030252 50 67 0.0 1.0 0.00 0.00 0.00 62 1009.8
20260504025751 50 136 0.0 2.0 0.00 0.00 0.00 60 1009.8
20260504025251 50 95 0.0 1.0 0.00 0.00 0.00 60 1009.5
20260504024751 50 162 0.0 1.0 0.00 0.00 0.00 59 1009.8
20260504024252 50 358 0.0 2.0 0.00 0.00 0.00 58 1009.8
20260504023752 50 118 0.0 2.0 0.00 0.00 0.00 60 1009.8
20260504023252 50 343 0.0 1.0 0.00 0.00 0.00 59 1009.8
20260504022751 50 329 1.0 3.0 0.00 0.00 0.00 58 1009.8
20260504022251 51 320 1.0 4.0 0.00 0.00 0.00 58 1009.8
20260504021752 50 218 3.0 6.0 0.00 0.00 0.00 60 1009.8
20260504021251 50 252 3.0 8.0 0.00 0.00 0.00 59 1009.8
20260504020751 50 241 2.0 8.0 0.00 0.00 0.00 60 1009.8
20260504020251 50 233 3.0 10.0 0.00 0.00 0.00 60 1009.8
20260504015751 50 307 4.0 10.0 0.00 0.00 0.00 60 1009.8
20260504015252 50 229 3.0 12.0 0.00 0.00 0.00 60 1010.2
20260504014751 50 186 7.0 13.0 0.00 0.00 0.00 62 1010.2
20260504014251 50 227 6.0 10.0 0.00 0.00 0.00 60 1010.2
20260504013751 51 210 7.0 17.0 0.00 0.00 0.00 58 1010.2
20260504013251 51 203 7.0 20.0 0.00 0.00 0.00 55 1009.8
20260504012751 51 330 3.0 8.0 0.00 0.00 0.00 55 1009.5
20260504012251 51 265 3.0 7.0 0.00 0.00 0.00 55 1009.8
20260504011752 51 233 2.0 5.0 0.00 0.00 0.00 56 1009.8
20260504011251 51 336 2.0 6.0 0.00 0.00 0.00 58 1009.8
20260504010752 51 205 6.0 15.0 0.00 0.00 0.00 57 1009.8
20260504010252 51 188 5.0 13.0 0.00 0.00 0.00 56 1009.8
20260504005751 51 285 2.0 4.0 0.00 0.00 0.00 56 1009.5
20260504005251 51 101 4.0 10.0 0.00 0.00 0.00 57 1009.8
20260504004751 51 308 2.0 6.0 0.00 0.00 0.00 55 1009.8
20260504004251 51 227 1.0 7.0 0.00 0.00 0.00 57 1009.8
20260504003752 51 212 1.0 4.0 0.00 0.00 0.00 55 1009.5
20260504003251 52 241 1.0 3.0 0.00 0.00 0.00 55 1009.5
20260504002751 51 234 3.0 9.0 0.00 0.00 0.00 55 1009.5
20260504002251 52 268 3.0 8.0 0.00 0.00 0.00 55 1009.5
20260504001751 52 243 2.0 5.0 0.00 0.00 0.00 55 1009.8
20260504001252 52 345 3.0 8.0 0.00 0.00 0.00 54 1009.5
20260504000751 52 319 3.0 8.0 0.00 0.00 0.00 53 1009.5
20260504000252 52 200 2.0 7.0 0.00 0.00 0.00 52 1009.5
20260503235751 52 279 2.0 7.0 0.00 0.00 0.00 52 1009.5
20260503235251 52 56 0.0 3.0 0.00 0.00 0.00 53 1009.1
20260503234752 52 137 0.0 3.0 0.00 0.00 0.00 52 1009.1
20260503234251 52 124 0.0 1.0 0.00 0.00 0.00 53 1009.1
20260503233751 52 333 0.0 1.0 0.00 0.00 0.00 52 1008.8
20260503233251 52 312 1.0 7.0 0.00 0.00 0.00 50 1008.8
20260503232751 53 251 0.0 2.0 0.00 0.00 0.00 50 1008.8
20260503232252 53 303 0.0 1.0 0.00 0.00 0.00 51 1008.8
20260503231751 53 255 0.0 2.0 0.00 0.00 0.00 50 1008.8
20260503231251 53 340 0.0 2.0 0.00 0.00 0.00 50 1008.8
20260503230751 53 221 2.0 6.0 0.00 0.00 0.00 49 1008.8
20260503230252 53 205 1.0 5.0 0.00 0.00 0.00 49 1008.8
20260503225751 53 230 2.0 4.0 0.00 0.00 0.00 48 1008.8
20260503225252 53 236 1.0 3.0 0.00 0.00 0.00 49 1008.8
20260503224751 53 320 0.0 3.0 0.00 0.00 0.00 49 1008.8
20260503224251 53 314 1.0 3.0 0.00 0.00 0.00 50 1008.8
20260503223751 53 359 0.0 3.0 0.00 0.00 0.00 50 1008.8
20260503223251 53 264 2.0 9.0 0.00 0.00 0.00 48 1008.8
20260503222751 53 268 2.0 4.0 0.00 0.00 0.00 48 1008.8
20260503222251 53 207 2.0 6.0 0.00 0.00 0.00 49 1008.8
20260503221751 53 286 4.0 10.0 0.00 0.00 0.00 48 1008.8
20260503221252 53 325 3.0 9.0 0.00 0.00 0.00 48 1008.8
20260503220752 53 216 4.0 7.0 0.00 0.00 0.00 47 1008.8
20260503220251 54 111 2.0 4.0 0.00 0.00 0.00 50 1009.1
20260503215751 54 336 3.0 6.0 0.00 0.00 0.00 47 1008.8
20260503215251 54 155 4.0 10.0 0.00 0.00 0.00 47 1009.1
20260503214751 54 243 3.0 7.0 0.00 0.00 0.00 48 1008.8
20260503214251 54 343 3.0 7.0 0.00 0.00 0.00 48 1009.1
20260503213752 54 271 3.0 7.0 0.00 0.00 0.00 48 1009.1
20260503213251 54 69 4.0 11.0 0.00 0.00 0.00 48 1009.1
20260503212752 54 194 5.0 11.0 0.00 0.00 0.00 47 1009.1
20260503212252 55 272 4.0 7.0 0.00 0.00 0.00 46 1009.1
20260503211751 55 271 3.0 8.0 0.00 0.00 0.00 49 1009.1
20260503211253 54 232 5.0 11.0 0.00 0.00 0.00 47 1009.1
20260503210751 54 118 4.0 10.0 0.00 0.00 0.00 48 1009.1
20260503210251 54 304 3.0 8.0 0.00 0.00 0.00 47 1009.1
20260503205751 53 90 3.0 12.0 0.00 0.00 0.00 49 1009.1
20260503205251 53 253 4.0 13.0 0.00 0.00 0.00 49 1009.1
20260503204751 53 123 4.0 9.0 0.00 0.00 0.00 48 1009.1
20260503204252 54 284 3.0 9.0 0.00 0.00 0.00 48 1009.1
20260503203751 54 226 2.0 8.0 0.00 0.00 0.00 49 1009.1
20260503203251 53 277 2.0 6.0 0.00 0.00 0.00 47 1009.1
20260503202751 53 246 4.0 10.0 0.00 0.00 0.00 48 1009.1
20260503202252 54 295 3.0 4.0 0.00 0.00 0.00 47 1009.1
20260503201752 54 354 1.0 1.0 0.00 0.00 0.00 47 1009.1
20260503201251 55 354 4.0 9.0 0.00 0.00 0.00 47 1009.1
20260503200751 54 38 4.0 8.0 0.00 0.00 0.00 46 1009.5
20260503200251 53 243 4.0 7.0 0.00 0.00 0.00 47 1009.5
20260503195752 53 1 4.0 10.0 0.00 0.00 0.00 46 1009.5
20260503195251 53 320 4.0 7.0 0.00 0.00 0.00 48 1009.5
20260503194751 52 265 5.0 11.0 0.00 0.00 0.00 47 1009.8
20260503194251 53 163 4.0 7.0 0.00 0.00 0.00 45 1009.5
20260503193751 53 75 5.0 10.0 0.00 0.00 0.00 45 1009.8
20260503193251 54 248 3.0 9.0 0.00 0.00 0.00 45 1009.5
20260503192752 53 334 5.0 14.0 0.00 0.00 0.00 45 1009.5
20260503192252 54 301 3.0 6.0 0.00 0.00 0.00 44 1009.8
20260503191751 55 328 3.0 8.0 0.00 0.00 0.00 42 1009.8
20260503191251 56 300 3.0 6.0 0.00 0.00 0.00 41 1009.8
20260503190753 55 336 3.0 8.0 0.00 0.00 0.00 42 1009.8
20260503190251 54 354 4.0 8.0 0.00 0.00 0.00 44 1009.8
20260503185751 54 317 4.0 10.0 0.00 0.00 0.00 43 1009.8
20260503185252 53 204 4.0 8.0 0.00 0.00 0.00 46 1009.8
20260503184751 53 3 5.0 14.0 0.00 0.00 0.00 44 1009.8
20260503184251 53 24 4.0 9.0 0.00 0.00 0.00 44 1010.2
20260503183751 53 337 4.0 11.0 0.00 0.00 0.00 44 1010.2
20260503183251 54 309 3.0 6.0 0.00 0.00 0.00 44 1009.8
20260503182751 55 315 4.0 9.0 0.00 0.00 0.00 41 1009.8
20260503182251 56 17 3.0 7.0 0.00 0.00 0.00 43 1010.2
20260503181751 55 312 7.0 15.0 0.00 0.00 0.00 43 1010.2
20260503181251 57 124 4.0 13.0 0.00 0.00 0.00 39 1010.2
20260503180751 57 305 4.0 9.0 0.00 0.00 0.00 41 1010.5
20260503180251 56 95 4.0 8.0 0.00 0.00 0.00 44 1010.5
20260503175751 54 185 5.0 8.0 0.00 0.00 0.00 43 1010.5
20260503175253 54 11 5.0 10.0 0.00 0.00 0.00 41 1010.5
20260503174751 56 300 3.0 7.0 0.00 0.00 0.00 40 1010.5
20260503174251 56 332 3.0 8.0 0.00 0.00 0.00 42 1010.5
20260503173751 55 291 4.0 8.0 0.00 0.00 0.00 43 1010.5
20260503173251 54 241 4.0 9.0 0.00 0.00 0.00 43 1010.5
20260503172751 52 233 7.0 13.0 0.00 0.00 0.00 43 1010.5
20260503172251 54 324 5.0 12.0 0.00 0.00 0.00 42 1010.5
20260503171751 54 343 5.0 10.0 0.00 0.00 0.00 42 1010.5
20260503171252 55 356 3.0 11.0 0.00 0.00 0.00 41 1010.8
20260503170751 53 209 4.0 9.0 0.00 0.00 0.00 43 1010.8
20260503170252 52 297 4.0 8.0 0.00 0.00 0.00 46 1010.8
20260503150751 48 230 3.0 6.0 0.00 0.00 0.00 51 1011.5
20260503150251 49 243 5.0 10.0 0.00 0.00 0.00 46 1011.5
20260503140251 48 326 3.0 6.0 0.00 0.00 0.00 46 1011.5
20260503131252 45 327 3.0 8.0 0.00 0.00 0.00 58 1011.5
20260503130752 43 241 3.0 7.0 0.00 0.00 0.00 64 1011.5
20260503130252 43 355 3.0 6.0 0.00 0.00 0.00 63 1011.9
20260503110751 37 69 0.0 1.0 0.00 0.00 0.00 85 1011.5
20260503110251 36 316 1.0 4.0 0.00 0.00 0.00 86 1011.5
20260503100252 37 295 1.0 2.0 0.00 0.00 0.00 85 1010.8
20260503090252 37 328 0.0 2.0 0.00 0.00 0.00 84 1010.8
20260503081251 37 7 0.0 3.0 0.00 0.00 0.00 83 1010.8
20260503080751 37 337 0.0 2.0 0.00 0.00 0.00 83 1010.8
20260503080251 37 22 1.0 7.0 0.00 0.00 0.00 83 1010.8
20260503072751 37 319 1.0 3.0 0.00 0.00 0.00 82 1010.8
20260503072251 37 355 1.0 4.0 0.00 0.00 0.00 82 1010.8
20260503071751 37 348 1.0 4.0 0.00 0.00 0.00 82 1010.8
20260503071252 37 11 1.0 4.0 0.00 0.00 0.00 81 1010.8
20260503070751 37 44 0.0 3.0 0.00 0.00 0.00 81 1010.8
20260503070252 38 10 0.0 2.0 0.00 0.00 0.00 82 1010.8